[[{"header":{"parameterUnit":"m.s-1","parameterCategory":1,"la1":30.2991,"la2":30.254,"lo1":-89.0895,"lo2":-89.0444,"dy":0.0017,"dx":0.0017,"nx":28,"ny":28,"refTime":"2024-08-18T09:00:00:Z","depth":0,"parameterNumber":2,"parameterNumberName":"U-component_of_WINDS"},"data":[0,0,0,0,0,0,0,0,0,0,0,0,0,0,0,0,0,0,0,0,0,0,0,0,0,0,0,0,0,0,0,0,0,0,0,0,0,0,0,0,0,0,0,0,0,0,0,0,0,0,0,0,0,0,0,0,0,0,1.092,1.092,0,1.0986,1.0987,1.0988,1.1002,1.1002,1.1001,1.1001,1.1072,1.1075,1.1077,0,0,0,0,0,0,0,0,0,0,0,0,0,1.0808,1.081,1.092,1.092,1.0921,1.0986,1.0987,1.0988,1.1002,1.1002,1.1001,1.1,1.1071,1.1074,1.1077,0,0,0,0,0,0,0,0,0,0,0,0,0,1.0864,1.081,1.0919,1.0936,1.0938,1.0986,1.0987,1.0988,1.1002,1.1002,1.1001,1.1,1.1071,1.1074,1.1077,1.1115,0,0,1.1088,1.109,0,0,0,0,0,0,0,0,1.086,1.0868,1.0933,1.0935,1.0937,1.0985,1.0974,1.1031,1.1002,1.0978,1.1001,1.1,1.1044,1.105,1.1064,1.1118,1.1121,1.1089,1.1091,1.1092,1.1093,0,0,0,0,0,0,0,1.0856,1.0865,1.0946,1.0934,1.0937,1.0941,1.0948,1.0985,1.1015,1.098,1.0981,1.0989,1.1045,1.1061,1.1066,1.1122,1.1089,1.1092,1.1094,1.1095,1.1211,1.1212,0,0,0,0,0,0,1.0849,1.0862,1.0944,1.0948,1.0896,1.0944,1.0952,1.0971,1.1014,1.102,1.0989,1.0989,1.1055,1.1062,1.1068,1.1115,1.1092,1.1096,1.1098,1.1211,1.1212,1.1213,0,0,0,0,0,0,1.0847,1.0856,1.0941,1.0905,1.0916,1.0947,1.0968,1.0972,1.0988,1.1021,1.1027,1.0999,1.1055,1.1063,1.1103,1.1118,1.1097,1.1101,1.1209,1.1211,1.1212,1.1209,0,0,0,0,0,0,1.0843,1.0855,1.0869,1.0905,1.0918,1.0974,1.0968,1.0974,1.0993,1.0994,1.1032,1.1038,1.1055,1.1098,1.1107,1.1123,1.1103,1.1208,1.121,1.1212,1.1208,1.121,1.1212,0,0,0,0,0,1.0839,1.0866,1.087,1.0879,1.0936,1.0974,1.0982,1.1,1.0994,1.1009,1.1031,1.1037,1.1115,1.1102,1.1112,1.1129,1.1207,1.121,1.1212,1.1207,1.121,1.1212,0,0,0,0,0,0,1.0832,1.0871,1.0875,1.0914,1.0941,1.0977,1.0995,1.1002,1.1032,1.1031,1.1053,1.1062,1.11,1.1119,1.1103,1.1168,1.1161,1.1165,1.1154,1.1157,1.1159,1.1154,1.1106,0,0,0,0,0,1.0834,1.0861,1.0895,1.0926,1.0939,1.0965,1.0983,1.0994,1.1023,1.1035,1.1059,1.1088,1.1119,1.1139,1.117,1.1211,1.122,1.1228,1.123,1.1232,1.1235,1.1259,1.1263,1.122,1.122,1.122,0,0,1.084,1.0865,1.0881,1.0925,1.0947,1.0976,1.0974,1.1005,1.1027,1.104,1.1078,1.1098,1.1131,1.1172,1.1191,1.1189,1.1249,1.1234,1.1235,1.1238,1.1262,1.1266,1.127,1.1221,1.1221,1.1221,0,0,1.0866,1.0887,1.0915,1.0937,1.097,1.0987,1.0994,1.1029,1.1042,1.1081,1.1092,1.1119,1.1172,1.1196,1.1215,1.125,1.1257,1.126,1.1271,1.1294,1.1297,1.1301,1.1314,1.1318,1.1263,1.1263,1.1263,0,1.0869,1.0912,1.093,1.096,1.0979,1.0991,1.1021,1.1042,1.1083,1.1097,1.1094,1.1161,1.1184,1.1231,1.124,1.1255,1.1264,1.1255,1.1295,1.1299,1.1302,1.1315,1.132,1.1263,1.1263,1.1263,1.1263,0,1.0915,1.0945,1.0964,1.1003,1.1024,1.1054,1.1078,1.1098,1.1108,1.1126,1.1166,1.1195,1.1232,1.1244,1.1254,1.1293,1.129,1.1291,1.1284,1.1306,1.1318,1.1323,1.1264,1.1264,1.1263,1.1263,0,0,1.0937,1.0985,1.0992,1.101,1.1048,1.1072,1.1103,1.1138,1.1155,1.1184,1.1211,1.1256,1.1257,1.1278,1.1292,1.1312,1.1339,1.131,1.1312,1.1315,1.1384,1.1383,1.1389,1.1344,1.1345,1.1346,1.1382,0,1.0967,1.1021,1.1038,1.1084,1.1112,1.1125,1.1152,1.1179,1.1196,1.1224,1.1244,1.1276,1.1275,1.1288,1.1309,1.1331,1.1353,1.1329,1.1371,1.1372,1.1361,1.1395,1.1394,1.1427,1.1387,1.1387,1.1388,0,1.101,1.1038,1.1086,1.112,1.1133,1.1157,1.1191,1.1216,1.1248,1.1259,1.1284,1.1296,1.133,1.1321,1.137,1.1353,1.1371,1.1385,1.1387,1.1391,1.1381,1.1401,1.1437,1.1442,1.1396,1.1395,1.1395,0,1.1021,1.1071,1.1107,1.1122,1.1163,1.1179,1.1198,1.1228,1.1248,1.1278,1.1292,1.1326,1.1345,1.1372,1.1394,1.1385,1.144,1.1434,1.1452,1.1452,1.1463,1.1462,1.1503,1.1474,1.1474,1.1474,1.1474,0,1.1053,1.1082,1.1112,1.1134,1.1168,1.1188,1.1221,1.124,1.1267,1.1294,1.1307,1.1332,1.1359,1.1388,1.1405,1.1443,1.1452,1.1463,1.1467,1.1462,1.146,1.1474,1.1472,1.1476,1.1475,1.1475,1.1475,0,1.1071,1.1093,1.1132,1.1168,1.1177,1.12,1.1232,1.1254,1.1273,1.1306,1.1316,1.1345,1.138,1.1404,1.145,1.1461,1.1503,1.1506,1.1491,1.1494,1.1511,1.1509,1.1562,1.157,1.1536,1.1536,1.1537,0,1.109,1.1113,1.1151,1.1169,1.1187,1.1216,1.1237,1.1258,1.1279,1.1317,1.1335,1.1371,1.14,1.1456,1.1483,1.1518,1.1523,1.1539,1.1528,1.1522,1.1523,1.1522,1.1525,1.154,1.1541,1.1541,1.1541,0,1.1122,1.1131,1.116,1.1192,1.1216,1.1243,1.127,1.1284,1.1311,1.1334,1.137,1.1392,1.1438,1.1474,1.1512,1.1532,1.1542,1.1544,1.1551,1.1545,1.1536,1.1542,1.1496,1.1543,1.1543,1.1543,1.1543,1.1543,1.1141,1.1162,1.1192,1.1223,1.1246,1.1271,1.1293,1.1315,1.1344,1.1382,1.1394,1.1431,1.1463,1.1514,1.1535,1.1566,1.1564,1.1573,1.1576,1.1578,1.1578,1.1531,1.1573,1.1573,1.1573,1.1573,1.1573,0,1.1174,1.1193,1.1222,1.1259,1.1284,1.1289,1.132,1.1341,1.1373,1.1401,1.143,1.1471,1.1506,1.1536,1.1572,1.1591,1.1597,1.16,1.1599,1.1604,1.1576,1.1567,1.1595,1.1595,1.1595,1.1595,1.1595,1.1595,1.1193,1.1229,1.1242,1.1289,1.1309,1.1345,1.1362,1.1386,1.1408,1.1453,1.1482,1.15,1.153,1.1569,1.1602,1.161,1.1623,1.1625,1.1634,1.1608,1.1606,1.1603,1.1595,1.1628,1.1628,1.166,1.166,1.166]},{"header":{"parameterUnit":"m.s-1","parameterCategory":1,"la1":30.2991,"la2":30.254,"lo1":-89.0895,"lo2":-89.0444,"dy":0.0017,"dx":0.0017,"nx":28,"ny":28,"refTime":"2024-08-18T09:00:00:Z","depth":0,"parameterNumber":3,"parameterNumberName":"V-component_of_WINDS"},"data":[0,0,0,0,0,0,0,0,0,0,0,0,0,0,0,0,0,0,0,0,0,0,0,0,0,0,0,0,0,0,0,0,0,0,0,0,0,0,0,0,0,0,0,0,0,0,0,0,0,0,0,0,0,0,0,0,0,0,-4.3829,-4.3832,0,-4.4079,-4.4082,-4.4085,-4.4079,-4.4076,-4.4072,-4.4069,-4.4324,-4.4334,-4.4344,0,0,0,0,0,0,0,0,0,0,0,0,0,-4.3347,-4.3356,-4.3829,-4.3832,-4.3835,-4.4078,-4.4082,-4.4085,-4.408,-4.4076,-4.4072,-4.4068,-4.4321,-4.4332,-4.4344,0,0,0,0,0,0,0,0,0,0,0,0,0,-4.3573,-4.3359,-4.3828,-4.3862,-4.3867,-4.4078,-4.4082,-4.4086,-4.4081,-4.4076,-4.407,-4.4066,-4.4317,-4.4331,-4.4346,-4.4539,0,0,-4.4392,-4.4398,0,0,0,0,0,0,0,0,-4.356,-4.359,-4.3854,-4.386,-4.3866,-4.4043,-4.4005,-4.4238,-4.4082,-4.4,-4.4069,-4.4063,-4.4234,-4.4256,-4.4314,-4.4551,-4.4562,-4.4393,-4.4402,-4.4408,-4.4413,0,0,0,0,0,0,0,-4.3544,-4.358,-4.3928,-4.3857,-4.3865,-4.3864,-4.3891,-4.405,-4.4142,-4.4006,-4.4007,-4.4036,-4.4237,-4.4299,-4.432,-4.4566,-4.4392,-4.4406,-4.4415,-4.4421,-4.4977,-4.4983,0,0,0,0,0,0,-4.3522,-4.3567,-4.392,-4.3935,-4.3697,-4.3877,-4.3907,-4.3991,-4.4141,-4.4159,-4.404,-4.4035,-4.4276,-4.4302,-4.4329,-4.4567,-4.4408,-4.4422,-4.4431,-4.4972,-4.4979,-4.4985,0,0,0,0,0,0,-4.3511,-4.3553,-4.391,-4.3751,-4.3796,-4.3891,-4.3986,-4.3999,-4.4061,-4.4166,-4.4183,-4.4087,-4.4274,-4.4308,-4.4488,-4.4576,-4.4429,-4.4442,-4.4965,-4.4974,-4.4982,-4.5044,0,0,0,0,0,0,-4.3497,-4.355,-4.3624,-4.3753,-4.3805,-4.4065,-4.3991,-4.4007,-4.4087,-4.4083,-4.4215,-4.4232,-4.4272,-4.4466,-4.4503,-4.4593,-4.4454,-4.4957,-4.4969,-4.4979,-4.5034,-4.5053,-4.507,0,0,0,0,0,-4.348,-4.363,-4.3628,-4.367,-4.39,-4.407,-4.41,-4.4143,-4.4094,-4.417,-4.4238,-4.4227,-4.456,-4.4484,-4.4526,-4.4622,-4.4952,-4.4965,-4.4978,-4.5026,-4.505,-4.5069,0,0,0,0,0,0,-4.3508,-4.3648,-4.3646,-4.3843,-4.3945,-4.4068,-4.4165,-4.4167,-4.4284,-4.4275,-4.4324,-4.4354,-4.4535,-4.4596,-4.4509,-4.4819,-4.475,-4.4772,-4.4772,-4.4795,-4.4813,-4.4794,-4.4466,0,0,0,0,0,-4.3538,-4.3664,-4.3779,-4.3941,-4.3992,-4.407,-4.4146,-4.4171,-4.4278,-4.4321,-4.4402,-4.4507,-4.4635,-4.4718,-4.4841,-4.5043,-4.5072,-4.513,-4.5148,-4.5162,-4.5181,-4.5294,-4.5321,-4.5028,-4.5028,-4.5028,0,0,-4.3599,-4.3691,-4.3767,-4.3949,-4.4031,-4.4162,-4.4106,-4.4246,-4.4344,-4.4342,-4.4518,-4.4581,-4.4701,-4.4893,-4.4982,-4.495,-4.5268,-4.5179,-4.5189,-4.5201,-4.531,-4.5338,-4.5363,-4.5037,-4.5036,-4.5034,0,0,-4.3778,-4.3859,-4.4005,-4.4088,-4.4213,-4.4264,-4.4299,-4.4424,-4.4466,-4.4643,-4.4646,-4.4762,-4.4981,-4.5067,-4.514,-4.5353,-4.5349,-4.5392,-4.5486,-4.5595,-4.5619,-4.5639,-4.5717,-4.5745,-4.541,-4.541,-4.541,0,-4.3838,-4.4035,-4.4079,-4.4221,-4.4301,-4.4307,-4.4455,-4.4533,-4.4692,-4.4748,-4.471,-4.4987,-4.5068,-4.5281,-4.5334,-4.5391,-4.5434,-4.5378,-4.5612,-4.5633,-4.5653,-4.5728,-4.5757,-4.5415,-4.5414,-4.5414,-4.5413,0,-4.4104,-4.4241,-4.4343,-4.4498,-4.4589,-4.4733,-4.4799,-4.4887,-4.4905,-4.496,-4.5141,-4.5239,-4.5383,-4.5435,-4.5453,-4.5652,-4.5629,-4.5601,-4.5533,-4.5685,-4.5756,-4.5785,-4.5421,-4.542,-4.5418,-4.5417,0,0,-4.4307,-4.4486,-4.4523,-4.4594,-4.4733,-4.484,-4.4984,-4.5126,-4.5202,-4.5311,-4.5435,-4.5621,-4.5597,-4.5679,-4.5706,-4.5802,-4.5968,-4.5763,-4.5767,-4.5799,-4.6196,-4.6217,-4.625,-4.5965,-4.5971,-4.5975,-4.6186,0,-4.4502,-4.476,-4.4804,-4.503,-4.5157,-4.5165,-4.5292,-4.5391,-4.5447,-4.5563,-4.5624,-4.5757,-4.5713,-4.5763,-4.5859,-4.5927,-4.6048,-4.5913,-4.6082,-4.6087,-4.6053,-4.6287,-4.631,-4.6504,-4.6214,-4.6219,-4.6223,0,-4.4764,-4.4882,-4.512,-4.5245,-4.53,-4.5412,-4.5547,-4.5658,-4.5772,-4.5805,-4.5898,-4.5915,-4.6067,-4.5991,-4.6201,-4.6108,-4.6179,-4.6224,-4.6232,-4.6251,-4.6165,-4.6313,-4.6567,-4.6596,-4.6267,-4.6263,-4.626,0,-4.4891,-4.5109,-4.528,-4.5341,-4.5489,-4.5569,-4.5634,-4.5743,-4.5826,-4.5944,-4.5999,-4.6132,-4.6205,-4.6308,-4.6361,-4.6301,-4.6568,-4.6496,-4.6602,-4.6601,-4.6658,-4.6654,-4.6929,-4.6702,-4.6701,-4.6701,-4.67,0,-4.5104,-4.525,-4.534,-4.5445,-4.561,-4.566,-4.5821,-4.5885,-4.5982,-4.61,-4.6114,-4.6226,-4.6288,-4.6408,-4.645,-4.6619,-4.6651,-4.6684,-4.6694,-4.6684,-4.668,-4.6732,-4.6721,-4.6709,-4.6707,-4.6705,-4.6704,0,-4.5274,-4.5339,-4.5528,-4.5653,-4.5688,-4.5804,-4.5912,-4.6016,-4.6071,-4.6221,-4.6259,-4.6347,-4.649,-4.6552,-4.6728,-4.6756,-4.6949,-4.6948,-4.6912,-4.6915,-4.7018,-4.7008,-4.7337,-4.7383,-4.7124,-4.7126,-4.7128,0,-4.5407,-4.552,-4.5658,-4.5739,-4.5808,-4.5937,-4.6023,-4.6077,-4.6165,-4.6304,-4.6391,-4.6534,-4.6652,-4.688,-4.6959,-4.7094,-4.7098,-4.7203,-4.7118,-4.7105,-4.7102,-4.7095,-4.7108,-4.7219,-4.7222,-4.7224,-4.7226,0,-4.5637,-4.5664,-4.5787,-4.5923,-4.6025,-4.6133,-4.624,-4.6305,-4.6376,-4.6475,-4.6622,-4.6713,-4.6893,-4.7036,-4.7176,-4.7244,-4.7248,-4.7252,-4.7284,-4.7276,-4.7251,-4.7268,-4.6956,-4.7244,-4.7243,-4.7241,-4.724,-4.7239,-4.5794,-4.5895,-4.6009,-4.6146,-4.6233,-4.6332,-4.6437,-4.6506,-4.6629,-4.6781,-4.6805,-4.6962,-4.7074,-4.7263,-4.7336,-4.746,-4.7434,-4.7479,-4.7491,-4.7502,-4.751,-4.723,-4.7485,-4.7485,-4.7484,-4.7484,-4.7484,0,-4.6025,-4.61,-4.6225,-4.6375,-4.6484,-4.6478,-4.6596,-4.6687,-4.6826,-4.693,-4.7046,-4.7216,-4.7355,-4.7445,-4.7586,-4.7668,-4.7673,-4.7703,-4.7699,-4.7715,-4.7524,-4.7483,-4.7697,-4.7697,-4.7697,-4.7697,-4.7697,-4.7696,-4.6159,-4.6332,-4.6373,-4.6589,-4.6662,-4.6816,-4.6885,-4.6977,-4.7061,-4.7251,-4.7367,-4.7425,-4.7525,-4.7673,-4.7801,-4.7824,-4.7876,-4.7907,-4.7929,-4.775,-4.7728,-4.7707,-4.7669,-4.7918,-4.7918,-4.811,-4.8112,-4.8113]}]]